Strait of Georgia - south of Nanaimo: Past 24 Hour Conditions

 

Discovery Island

11:00 AM PDT 25 October 2014
This table is a summary of hourly weather conditions for the past 24 hours.
Date / Time
(PDT)
Wind(knots) Conditions Visibility(km) Pressure(kPa) Air tempC) Relative humidity(%) Dew pointC)
25 October 2014
11:00 ENE 11 gust 17 N/A N/A 99.6 11 86 9
10:00 NNE 15 N/A N/A 99.7 10 92 8
9:00 N 18 N/A N/A 99.7 10 89 8
8:00 NNW 11 gust 18 N/A N/A 99.8 9 91 8
7:00 N 21 N/A N/A 99.7 10 89 8
6:00 N 21 N/A N/A 99.8 10 91 8
5:00 NNE 18 N/A N/A 100.0 10 88 8
4:00 NNE 15 N/A N/A 100.2 10 90 8
3:00 NNE 16 N/A N/A 100.3 10 92 9
2:00 NNE 15 N/A N/A 100.5 10 94 9
1:00 NNE 11 N/A N/A 100.6 10 94 9
0:00 NE 7 N/A N/A 100.8 10 91 8
24 October 2014
23:00 NE 10 N/A N/A 100.9 10 87 8
22:00 NNE 11 N/A N/A 101.0 11 86 8
21:00 N 14 N/A N/A 101.0 11 88 9
20:00 N 14 N/A N/A 101.1 11 89 9
19:00 N 13 N/A N/A 101.1 11 87 9
18:00 N 13 N/A N/A 101.2 11 86 9
17:00 N 11 N/A N/A 101.3 11 87 9
16:00 N 12 N/A N/A 101.3 11 86 8
15:00 NNE 11 N/A N/A 101.4 11 81 8
14:00 N 11 N/A N/A 101.5 11 83 8
13:00 N 9 N/A N/A 101.6 11 84 8
12:00 NNE 4 N/A N/A 101.6 11 81 8
11:00 ENE 6 N/A N/A 101.7 10 84 8
 
Map of Pacific - Georgia Basin marine weather areas Tsawwassen Ferry Terminal Sentry Shoal - 46131 Halibut Bank - 46146 La Perouse Bank - 46206 Discovery Island Esquimalt Harbour Kelp Reefs Malahat Race Rocks Lightstation Saturna Island Sheringham Point University of Victoria Victoria Gonzales Victoria Int'l Airport Ballenas Islands Campbell River Airport Comox Airport Entrance Island Fanny Island Nanaimo Airport Sisters Islets Estevan Point Tofino Airport Grief Point Powell River Airport Sechelt Point Atkinson Sand Heads Lightstation Vancouver Harbour Vancouver Int'l Airport West Vancouver Port Alberni Howe Sound - Pam Rocks Squamish Airport